Wetbulb
57.27 57.19 57.84 59.17 60.06 60.24 60.69 61.81 63.59 63.33 62.90 63.63 63.38 63.19 63.32 63.51 62.67 62.26 62.27 62.08 62.04 61.86
57.67 57.85 58.61 59.92 60.53 61.08 60.86 61.72 62.04 62.55 62.61 62.25 63.53 63.18 63.22 63.01 62.61 62.30 61.84 61.31 61.01 60.81
51.46 52.01 53.37 53.74 51.55 52.56 54.40 55.05 54.75 55.12 58.68 60.47 57.86 58.81 59.00 58.40 58.53 59.55 60.40 60.32 60.08 59.93
47.15 47.27 48.22 47.84 47.39 47.93 48.71 49.58 49.49 49.23 49.67 50.06 50.50 51.43 52.56 52.10 51.78 52.39 52.64 52.34 52.98 56.61
44.74 44.44 43.62 43.59 44.03 44.04 43.82 44.81 45.82 46.70 46.33 46.79 47.18 47.51 47.30 47.34 47.60 47.70 47.88 48.20 48.79 48.70
42.11 41.63 40.65 40.37 40.94 40.91 40.67 41.00 41.76 42.83 43.42 43.74 43.88 44.24 45.14 45.57 45.63 46.13 46.31 46.59 46.63 46.95
39.33 39.81 39.87 39.72 39.17 39.31 39.45 38.79 38.77 38.96 40.06 40.24 40.19 40.54 41.59 42.63 42.65 42.63 43.18 45.07 46.24 46.49
38.75 38.76 38.91 38.69 38.62 38.99 38.92 38.76 38.20 37.55 37.54 38.34 38.50 39.01 39.35 39.82 40.87 40.63 40.56 41.76 42.17 42.98
37.37 37.33 36.97 37.26 37.41 37.13 37.00 37.09 36.70 36.18 36.72 36.58 36.52 38.77 39.19 38.44 38.50 38.56 38.39 38.53 39.53 40.16
36.78 35.94 35.98 35.93 35.68 35.42 35.35 36.08 35.61 35.35 35.49 35.27 35.36 37.48 38.18 38.48 37.70 37.84 37.98 37.38 37.34 37.28
35.70 35.12 35.40 35.13 34.76 34.67 35.11 34.93 34.85 34.57 34.73 34.72 35.40 36.44 37.29 37.87 37.55 37.35 36.87 36.50 36.18 35.76
35.00 34.62 34.94 34.10 34.03 34.09 33.84 34.17 33.75 33.88 33.73 33.43 34.16 35.65 36.20 35.99 36.15 36.08 36.01 36.34 36.61 35.82
34.48 34.29 33.86 33.86 33.56 33.84 33.52 32.86 33.20 32.70 33.31 33.72 33.35 34.93 35.08 35.04 34.69 33.73 34.21 35.35 36.00 36.90
34.32 33.69 33.59 33.48 33.53 32.78 32.15 32.16 32.42 32.31 33.60 33.66 33.64 33.64 34.21 35.03 34.22 33.69 33.42 33.72 34.20 35.61
MSLP
1006.31 1006.65 1006.90 1007.03 1007.23 1007.39 1007.65 1007.68 1007.63 1008.18 1008.63 1008.71 1008.99 1009.23 1009.37 1009.54 1009.74 1009.95 1010.06 1010.09 1010.10 1010.03
1006.20 1006.52 1006.90 1006.89 1007.26 1007.22 1007.36 1007.51 1007.77 1008.09 1008.25 1008.46 1008.66 1008.90 1009.05 1009.15 1009.18 1009.30 1009.41 1009.47 1009.63 1009.67
1008.39 1008.49 1008.40 1008.44 1008.61 1008.61 1008.69 1008.65 1008.45 1008.67 1008.56 1008.66 1008.97 1009.18 1009.26 1009.34 1009.29 1009.18 1008.96 1008.89 1008.95 1008.81
1009.70 1009.70 1009.64 1009.72 1009.95 1010.04 1010.14 1010.02 1009.53 1009.71 1009.79 1009.97 1010.14 1009.81 1009.96 1010.02 1010.14 1009.96 1009.87 1009.47 1009.50 1009.19
1010.43 1010.70 1010.85 1011.04 1011.22 1011.23 1011.17 1011.20 1011.09 1010.77 1010.92 1011.34 1011.36 1010.57 1010.52 1010.90 1010.53 1010.68 1010.60 1010.51 1010.40 1010.44
1011.42 1011.85 1012.26 1012.16 1012.52 1012.25 1012.09 1012.11 1012.36 1012.15 1011.77 1012.81 1012.20 1011.28 1011.21 1011.55 1011.09 1011.20 1011.32 1011.47 1011.26 1011.04
1012.63 1013.00 1013.21 1012.75 1013.28 1013.38 1013.28 1013.13 1013.10 1012.70 1013.23 1013.32 1012.65 1012.04 1011.78 1011.86 1011.47 1011.85 1011.71 1011.70 1011.68 1011.55
1013.60 1013.98 1013.67 1013.55 1013.72 1013.75 1013.94 1014.16 1013.90 1013.75 1013.71 1013.05 1012.79 1013.14 1012.88 1012.22 1012.25 1012.10 1012.10 1012.09 1012.12 1011.98
1014.40 1014.49 1014.60 1014.44 1014.43 1014.42 1014.28 1014.30 1014.11 1013.94 1013.59 1013.43 1013.48 1013.51 1013.35 1013.26 1012.82 1012.69 1012.51 1012.39 1012.27 1012.07
1014.79 1014.80 1014.87 1014.97 1014.78 1014.59 1014.47 1014.53 1014.50 1014.52 1014.32 1014.09 1014.06 1014.09 1013.76 1013.49 1013.06 1012.86 1012.86 1012.72 1012.46 1012.24
1015.25 1015.26 1015.27 1015.26 1015.17 1015.09 1014.94 1014.89 1014.83 1014.75 1014.57 1014.40 1014.26 1014.34 1014.08 1013.56 1013.13 1012.94 1012.88 1012.76 1012.65 1012.42
1015.37 1015.27 1015.31 1015.34 1015.29 1015.28 1015.24 1015.11 1015.02 1014.92 1014.93 1014.78 1014.58 1014.40 1014.22 1013.86 1013.35 1013.09 1012.88 1012.76 1012.49 1012.51
1015.75 1015.63 1015.68 1015.73 1015.62 1015.57 1015.51 1015.43 1015.42 1015.23 1015.19 1014.98 1014.83 1014.59 1014.59 1014.19 1013.59 1013.27 1013.11 1012.76 1012.53 1012.51
1015.93 1015.95 1015.95 1015.94 1015.92 1015.83 1015.72 1015.65 1015.51 1015.24 1014.88 1014.82 1014.66 1014.59 1014.70 1014.63 1014.31 1013.90 1013.52 1012.94 1012.62 1012.39
Wind_Speed
13 9 10 10 6 8 6 7 8 9 8 9 10 10 10 10 10 12 12 15 13 12
8 10 8 8 7 6 7 4 6 8 9 11 11 8 10 8 10 11 12 12 12 11
10 10 10 8 10 10 9 7 8 10 8 3 5 3 2 2 4 6 9 9 13 11
11 12 12 11 12 11 10 9 10 10 10 10 8 8 6 6 7 7 5 8 10 5
14 14 14 13 12 12 13 12 11 11 11 9 8 9 10 8 7 8 8 8 7 8
15 14 12 13 11 12 11 11 12 11 10 8 8 9 8 6 8 7 7 6 6 6
13 10 8 10 8 10 8 9 8 10 7 5 8 10 9 5 6 4 4 4 4 4
9 9 9 9 7 7 6 4 5 5 5 7 10 8 8 9 6 7 7 6 7 6
9 8 8 7 6 6 6 7 7 7 7 6 8 15 14 11 7 8 7 7 7 8
7 7 6 5 6 7 7 7 7 6 5 6 7 14 14 14 5 5 6 6 7 7
4 4 4 5 6 6 6 6 5 6 7 6 7 13 14 14 6 4 5 6 7 7
6 5 5 5 5 5 5 5 6 7 7 7 6 14 16 13 7 6 5 6 6 6
4 4 5 5 5 5 6 6 5 6 5 6 6 9 12 12 7 8 7 8 7 7
4 4 5 5 4 5 4 4 4 4 2 3 4 6 8 8 6 6 7 6 6 6
Wind_Direction
218 222 221 222 228 232 229 227 210 199 231 241 235 241 238 232 234 235 241 246 244 238
225 223 221 221 244 245 233 230 224 243 241 236 235 240 247 248 240 238 238 237 239 241
52 43 36 44 46 33 24 30 51 37 7 57 60 33 36 6 343 278 253 247 235 222
60 51 55 51 44 43 36 31 62 56 49 41 36 47 56 51 26 32 28 33 17 348
63 53 48 46 38 43 42 32 32 53 53 40 33 54 44 42 42 31 22 19 20 18
52 48 49 48 36 37 43 40 31 43 51 24 38 38 45 32 40 32 22 14 12 8
53 50 49 51 45 40 28 38 29 35 41 48 46 31 24 23 38 20 26 18 351 355
76 53 38 41 42 48 92 69 34 49 43 37 46 33 21 12 6 15 6 7 0 3
60 56 47 37 42 51 52 51 46 37 31 36 48 22 24 15 1 9 6 360 358 351
38 50 44 46 34 31 34 33 32 31 20 31 45 20 15 3 11 10 9 359 354 352
51 48 46 36 32 31 21 27 17 19 18 19 40 19 12 2 360 10 356 353 350 5
14 21 27 31 27 20 6 9 8 13 8 17 9 19 10 0 348 336 348 341 338 360
17 14 23 6 7 4 2 359 355 354 357 360 355 20 359 358 344 352 345 329 332 344
15 7 13 360 357 355 347 334 319 311 303 322 29 11 3 348 335 347 325 329 328 329